{"data":{"norad_id":48780,"epoch":"2026-05-24T19:43:07.890240Z","epoch_age_seconds":104553,"freshness":"FRESH","line1":"1 48780U 21045P   26144.82161910 -.00000106  00000+0 -31520-3 0  9996","line2":"2 48780  87.9007 263.8357 0001792  98.5465 261.5869 13.15549811241259","mean_motion":13.15549811,"eccentricity":0.0001792,"inclination_deg":87.9007,"raan_deg":263.8357,"arg_perigee_deg":98.5465,"mean_anomaly_deg":261.5869,"bstar":-0.0003152,"rev_number":24125,"period_min":109.45993743144,"perigee_km":1200.407605121,"apogee_km":1203.1242423288,"semimajor_km":7579.9029237249,"source":"CELESTRAK","updated_at":"2026-05-25T13:38:22.444105Z"}}